Terminal Aerodrome Forecast
Issued by NWS Sterling, VA

Current Version | Previous Version | Graphics & Text | Print | Product List | Glossary On
Versions: 1 2 3 4 5 6 7 8 9 10 11 12 13 14 15 16 17
000
FTUS41 KLWX 020538
TAFMRB
TAF
KMRB 020538Z 0206/0306 VRB03KT P6SM OVC100
     FM020900 VRB03KT 5SM BR SCT002
     FM021200 33004KT P6SM FEW090
     FM021500 33007KT P6SM FEW050=

USA.gov is the U.S. government's official web portal to all federal, state and local government web resources and services.